Terug naar catalogus

COSMOS 1275 DEB

LostPO
NORAD 42137·DEBRIS·🇷🇺 Russia

Gelanceerd Jun 4, 1981 vanaf Plesetsk Cosmodrome

Loading…

Volgende Passages (komende 24 uur)

TLE

VerouderdSource: Space-Track

Epoch: Aug 16, 2017, 20:01 UTC

1 42137U 81053QZ  17228.83406549 +.00000480 +00000-0 +59097-3 0  9998
2 42137 082.8754 057.5819 0156400 194.5026 165.4727 13.58524929633430

Volg COSMOS 1275 DEB in realtime met AllMySat

Download on the App Store